ジャクソン-ニェウイミン彗星

58P/Jackson-Neujmin (1995)

English version
Home page
Updated on September 29, 2004

---------------------------------------------------------------------

・ プロフィール

・ 軌道要素

   The following improved orbital elements, by Kenji Muraoka, are from
  321 observations 1970 to 1996, including 9 Planets and 5 minor planets
  perturbations and non-gravitational effect of style II.  
   The mean residual is  +/- 0.77 arc seconds.

      Epoch  =  1995 Oct. 10.0  TT       JDT = 2450000.5
          T  =  1995 Oct.  6.60785       +/- 0.00072 (m.e.) TT
       Peri. =  200.35227                +/- 0.00034
       Node  =  160.71768                +/- 0.00003   (2000.0)
       Incl. =   13.47861                +/- 0.00001
          q  =    1.3811700              +/- 0.0000006 AU
          e  =    0.6614254              +/- 0.0000003
          a  =    4.0793669              +/- 0.0000009 AU
          n  =    0.11962306             +/- 0.00000004
          P  =    8.239                  +/- 0.0000027  years
         A1  =   +0.332                  +/- 0.026
         A2  =   -0.01516                +/- 0.00015

・ 星図

・ 1995年 6月 2日〜1996年 5月27日

・ 光度変化

        m1 = 7.5 + 5 logΔ + 30 log r(t - 80)

---------------------------------------------------------------------

軌道要素は村岡健治氏の計算によるものです。
星図は StellaNavigator Ver.2.0 for Windows (アストロアーツ 編著 / アスキー出版局刊) で作成したものです。
光度グラフはComet for Windowsで作成したものです。

---------------------------------------------------------------------

Copyright(C) Seiichi Yoshida (comet@aerith.net). All rights reserved.